Location: Cucq
(50.4773°N, 1.6202°E)
Time: 05:21:53
(UTC+00:00)

Meteor 1-24 Rocket - Pass Details

Date: 07 August 2020
Orbit: 789 x 928 km, 81.3° (Epoch: 19 September)

Event Time Altitude Azimuth Distance (km) Brightness Sun altitude
Rises 01:56:04 0° 348° (NNW) 3,419 7.6 -18.4°
Reaches altitude 10° 01:58:32 10° 350° (N) 2,459 6.8 -18.3°
Maximum altitude 02:04:05 79° 77° (ENE) 837 3.7 -17.8°
Enters shadow 02:08:31 15° 163° (SSE) 2,016 5.3 -17.4°
